Weather Roundup
Issued by NWS

Home | Current Version | Previous Version | Graphics & Text | Print | Product List | Glossary Off
Versions: 1 2 3 4 5 6 7 8 9 10 11 12 13 14 15 16 17 18 19 20 21 22 23 24 25 26 27 28 29 30 31 32 33 34 35 36 37 38 39 40 41 42 43 44 45 46 47 48 49 50

000
NZUS93 KARX 061010
HRRWXR

CURRENT HOURLY OBSERVATIONS ACROSS
MUCH OF THE UPPER MISSISSIPPI VALLEY
NATIONAL WEATHER SERVICE LA CROSSE WI
500 AM CDT WED MAY 06 2015


...SOUTHEAST MINNESOTA...


CITY           SKY/WX    TMP DP  RH WIND       PRES   REMARKS
ROCHESTER      FOG       54  53  97 SE16      30.09F VSB 1/4
ROCHESTER/MAYO CLOUDY    54  54 100 SE10      30.09S VSB 1/2
WINONA         CLOUDY    54  52  94 E7        30.11F FOG
AUSTIN         FOG       55  54  94 SE10      30.07S VSB 3/4
ALBERT LEA     FOG       55  55 100 SE13G20   30.05S VSB 1/2
DODGE CENTER   FOG       55  54  94 SE14      30.07F VSB 1/4
PRESTON        FOG       53  52  97 SE10      30.10S VSB 1/4
OWATONNA       CLOUDY    55  54  94 SE13G21   30.05S FOG
FARIBAULT      CLOUDY    55  54  94 SE8       30.06F FOG
$$

...ELSEWHERE IN MINNESOTA...


CITY           SKY/WX    TMP DP  RH WIND       PRES   REMARKS
MINNEAPOLIS    CLOUDY    56  54  93 SE13      30.07F FOG
INTNL FALLS    CLEAR     44  30  57 SE6       30.07F
DULUTH         CLOUDY    51  30  44 E12       30.10F
RED WING       CLOUDY    55  54  94 SE13      30.08F FOG
REDWOOD FALLS  FOG       56  55  97 SE14      30.00S VSB 1/2
MANKATO        CLOUDY    55  55 100 SE14      30.03F
WORTHINGTON    CLOUDY    61  57  88 SE15      29.98S
FAIRMONT       CLOUDY    57  52  82 SE15      30.01S
$$

...SOUTHWEST WISCONSIN...


CITY           SKY/WX    TMP DP  RH WIND       PRES   REMARKS
LA CROSSE      CLOUDY    56  53  90 SE7       30.12F FOG
PRAIRIE DU CHI CLOUDY    54  52  94 E8        30.13R FOG
BOSCOBEL       CLOUDY    54  52  93 NE3       30.14F FOG
LONE ROCK      CLOUDY    52  51  97 E9        30.15F FOG
PLATTEVILLE    CLOUDY    52  51  97 E10       30.13F VSB 1/4
FORT MC COY    CLOUDY    53  51  94 E6        30.15F FOG
CAMP DOUGLAS   CLOUDY    51  51 100 E8        30.15F
VIROQUA        CLOUDY    51  51 100 E9        30.13F VSB 1/4
WIS DELLS      NOT AVBL
$$

...ELSEWHERE IN WISCONSIN...


CITY           SKY/WX    TMP DP  RH WIND       PRES   REMARKS
MILWAUKEE      CLOUDY    46  41  82 NE6       30.20F HAZE
MADISON        CLOUDY    50  48  93 SE10      30.16F
GREEN BAY      CLOUDY    52  42  69 NE6       30.21S
EAU CLAIRE     CLOUDY    53  50  89 E9        30.12F
BLACK RVR FLS  CLOUDY    52  52  99 E5        30.15S FOG
MEDFORD        CLOUDY    47  44  90 E6        30.17F
WAUSAU         LGT RAIN  48  44  86 SE7       30.18F
WIS RAPIDS     CLOUDY    51  44  77 E7        30.19S
MARSHFIELD     CLOUDY    51  46  83 SE9       30.17S
RICE LAKE      CLOUDY    51  48  90 E8        30.14F
$$

...NORTHEAST IOWA...


CITY           SKY/WX    TMP DP  RH WIND       PRES   REMARKS
DECORAH        FOG       54  54 100 SE7G14    30.10S VSB 1/4
MASON CITY     FOG       56  56 100 SE9       30.07S VSB 1/4
CHARLES CITY   FOG       55  55 100 SE12      30.09R VSB 1/4
OELWEIN        FOG       55  55 100 SE15      30.09F VSB 1/4
$$

...ELSEWHERE IN IOWA...


CITY           SKY/WX    TMP DP  RH WIND       PRES   REMARKS
DES MOINES     MOCLDY    65  59  81 E9        30.00S
IOWA CITY      CLOUDY    57  55  93 E8        30.10R FOG
FORT DODGE     CLOUDY    63  57  82 E12       30.00F
$$

...NORTHERN ILLINOIS...


CITY           SKY/WX    TMP DP  RH WIND       PRES   REMARKS
CHICAGO-OHARE  FOG       47  47 100 NE6       30.17F VSB 1/4
CHICAGO-MIDWAY FOG       51  50  96 E3        30.17F VSB 1/4
MOLINE         CLOUDY    56  54  93 E9        30.11S FOG
ROCKFORD       FOG       50  49  96 E7        30.18S VSB 1/2
PEORIA         CLEAR     61  58  90 E6        30.11S FOG
$$

NOTE: "FAIR" INDICATES FEW OR NO CLOUDS BELOW 12,000 FEET WITH NO
SIGNIFICANT WEATHER AND/OR OBSTRUCTIONS TO VISIBILITY. WIND
SPEEDS ARE IN MILES-PER-HOUR.



USA.gov is the U.S. government's official web portal to all federal, state and local government web resources and services.